Flag for United Kingdom Weather past 2 weeks in Brighton, England, United Kingdom

Now
57 °F

Drizzle. Broken clouds.


Feels Like: 54 °F
Forecast: 54 / 62 °F
Wind: 15 mph from Southwest

Location: Shoreham Airport

Current Time: Oct 23, 2014 at 10:24:20 AM

Latest Report: Oct 23, 2014 at 9:50 AM


Visibility: 6 mi

Pressure: 30.15 "Hg

Humidity: 82%

Dew point: 52 °F

Location of BrightonLocation

Historic Weather in Brighton — Graph

°F

Brighton temperature yesterday

Maximum temperature yesterday: 55 °F (at 12:20 PM)
Minimum temperature yesterday: 45 °F (at 7:50 AM)
Average temperature yesterday: 53 °F

Past Weeks' High & Low Weather Summary

 TemperatureHumidityPressure
High66 °F (Oct 18, 11:50 AM)100% (Oct 11, 8:50 AM)30.30 "Hg (Oct 11, 8:50 AM)
Low45 °F (Oct 22, 7:50 AM)51% (Oct 21, 1:50 PM)29.39 "Hg (Oct 8, 11:50 AM)
Average59 °F83%29.78 "Hg
* Reported Oct 8 9:20 AM — Oct 23 9:20 AM, Brighton, Weather by CustomWeather, © 2014

Note: Actual official high and low records may vary slightly from our data, if they occured in-between our weather recording intervals... More about our weather records

Advertising

Brighton weather history for previous 24 hours

 ConditionsComfort  
Time TempWeatherWind HumidityBarometerVisibility
9:20 AM
Oct 23
57 °FPartly sunny.7 mph82%30.15 "HgN/A
8:50 AM57 °FPartly sunny.8 mph77%30.18 "HgN/A
8:20 AM55 °FPassing clouds.7 mph82%30.18 "HgN/A
7:50 AM55 °FPassing clouds.7 mph82%30.18 "HgN/A
7:50 PM
Oct 22
54 °FPassing clouds.5 mph77%30.24 "HgN/A
7:20 PM54 °FPassing clouds.1 mph77%30.24 "HgN/A
6:20 PM54 °FPassing clouds.8 mph77%30.27 "HgN/A
5:50 PM54 °FPassing clouds.10 mph77%30.27 "HgN/A
5:20 PM54 °FPassing clouds.12 mph77%30.27 "HgN/A
4:50 PM54 °FPassing clouds.10 mph77%30.27 "HgN/A
4:20 PM55 °FPassing clouds.10 mph67%30.27 "HgN/A
3:20 PM55 °FPassing clouds.12 mph67%30.27 "HgN/A
2:50 PM55 °FPassing clouds.10 mph63%30.27 "HgN/A
2:20 PM55 °FSunny.13 mph63%30.30 "Hg10 mi
1:50 PM55 °FPassing clouds.10 mph67%30.30 "HgN/A
1:20 PM55 °FPassing clouds.12 mph63%30.30 "HgN/A
12:50 PM55 °FSunny.12 mph63%30.30 "Hg10 mi
12:20 PM55 °FSunny.14 mph63%30.30 "Hg10 mi
11:50 AM54 °FSunny.13 mph67%30.30 "Hg10 mi
11:20 AM54 °FSunny.13 mph67%30.30 "Hg10 mi
10:50 AM52 °FSunny.14 mph67%30.30 "Hg10 mi
10:20 AM52 °FSunny.15 mph72%30.30 "Hg10 mi
Weather by CustomWeather, © 2014

See weather overviewHow to use our weather pages